Regional Weather Roundup
Issued by NWS

Home | Current Version | Previous Version | Text Only | Print | Product List | Glossary On
Versions: 1 2 3 4 5 6 7 8 9 10 11 12 13 14 15 16 17 18 19 20 21 22 23 24 25 26 27 28 29 30 31 32 33 34 35 36 37 38 39 40 41 42 43 44 45 46 47 48 49 50
000
ASUS43 KBIS 101410
RWRND

NORTH DAKOTA REGIONAL WEATHER ROUNDUP
NATIONAL WEATHER SERVICE BISMARCK ND
800 AM CST WED FEB 10 2016

NOTE: "FAIR" INDICATES FEW OR NO CLOUDS BELOW 12,000 FEET WITH NO
SIGNIFICANT WEATHER AND/OR OBSTRUCTIONS TO VISIBILITY.


NDZ001>003-009>011-017-101500-
NORTHWEST NORTH DAKOTA

CITY           SKY/WX    TMP DP  RH WIND       PRES   REMARKS
WILLISTON      CLEAR     33  28  81 N7        29.87R
MINOT          CLOUDY    17   9  70 E12       29.90R WCI   4
MINOT AFB      CLOUDY    14  10  85 E14       29.92R WCI  -1
$$

NDZ018>021-031>035-040>046-101500-
SOUTHWEST NORTH DAKOTA

CITY           SKY/WX    TMP DP  RH WIND       PRES   REMARKS
BISMARCK       CLOUDY    22  17  81 SE9       29.87R WCI  12
DICKINSON      CLEAR     31  25  78 W14       29.80R
GARRISON         N/A     19  16  88 E9        29.84S WCI   8
HETTINGER ARPT CLEAR     27  22  81 W9        29.83R WCI  18
$$

NDZ004>008-012>016-024-026-027-054-101500-
NORTHEAST NORTH DAKOTA

CITY           SKY/WX    TMP DP  RH WIND       PRES   REMARKS
GRAND FORKS    LGT SNOW   5  -1  76 E8        30.11F WCI  -8
GRND FRKS AFB  FLURRIES   4  -2  77 E9        30.10F WCI -10
DEVILS LAKE    CLOUDY     4   0  83 E14       30.00S WCI -14
$$

NDZ022-023-025-028>030-036>039-047>053-101500-
SOUTHEAST NORTH DAKOTA

CITY           SKY/WX    TMP DP  RH WIND       PRES   REMARKS
FARGO          LGT SNOW   8   3  80 E6        30.09F WCI  -2
JAMESTOWN      LGT SNOW   6   2  83 E14       29.97S FOG     WCI -11
$$




USA.gov is the U.S. government's official web portal to all federal, state and local government web resources and services.